Change the Weather History Date:

Saturday, September 24, 2011

  Actual Average Record
Temperature  
Mean Temperature 72 °F 60 °F  
Max Temperature 86 °F 75 °F 89 °F (1992)
Min Temperature 57 °F 45 °F 29 °F (1926)
Degree Days  
Heating Degree Days 0 6  
Month to date heating degree days 83 78  
Since 1 July heating degree days 83 94  
Cooling Degree Days 7 1  
Month to date cooling degree days 54 71  
Year to date cooling degree days 917 759  
Growing Degree Days 20 (Base 50)    
Moisture  
Dew Point 31 °F    
Average Humidity 28    
Maximum Humidity 44    
Minimum Humidity 12    
Precipitation  
Precipitation 0.00 in 0.03 in 0.62 in (1961)
Month to date precipitation 0.89 0.77  
Year to date precipitation 14.27 12.13  
Snow  
Snow 0.00 in - - ()
Month to date snowfall 0  
Since 1 July snowfall 0  
Since 1 September snowfall 0  
Snow Depth 0.00 in    
Sea Level Pressure  
Sea Level Pressure 29.92 in    
Wind  
Wind Speed 9 mph (WNW)    
Max Wind Speed 18 mph    
Max Gust Speed 25 mph    
Visibility 10 miles    
Events      
T = Trace of Precipitation, MM = Missing Value Source: NWS Daily Summary

Daily Weather History Graph

Daily Weather History Graph

Search for Another Location

Airport or City:

Trip Planner

Search our weather history database for the weather conditions in past years. The results will help you decide how hot, cold, wet, or windy it might be!

Date:

Astronomy

Sep. 24, 2011 Rise Set
Actual Time 6:47 AM MDT 6:52 PM MDT
Civil Twilight 6:20 AM MDT 7:19 PM MDT
Nautical Twilight 5:49 AM MDT 7:51 PM MDT
Astronomical Twilight 5:17 AM MDT 8:23 PM MDT
Moon 3:26 AM MDT (9/24) 5:00 PM MDT (9/24)
Length of Visible Light 12h 58m
Length of Day
12h 04m
Waning Crescent, 11% of the Moon is Illuminated
Sep 24
Waning Crescent
Sep 27
New
Oct 3
First Quarter
Oct 11
Full
Oct 19
Last Quarter

Hourly Weather History & Observations

Time (MDT) Temp. Dew Point Humidity Pressure Visibility Wind Dir Wind Speed Gust Speed Precip Events Conditions
12:53 AM 61.0 °F 32.0 °F 34% 29.96 in 10.0 mi SW 10.4 mph - N/A   Scattered Clouds
1:53 AM 61.0 °F 32.0 °F 34% 29.94 in 10.0 mi SW 12.7 mph - N/A   Partly Cloudy
2:53 AM 57.9 °F 32.0 °F 37% 29.94 in 10.0 mi SW 10.4 mph - N/A   Partly Cloudy
3:53 AM 57.9 °F 32.0 °F 37% 29.93 in 10.0 mi WSW 11.5 mph - N/A   Partly Cloudy
4:53 AM 57.0 °F 32.0 °F 39% 29.92 in 10.0 mi SW 9.2 mph - N/A   Partly Cloudy
5:53 AM 60.1 °F 30.9 °F 33% 29.92 in 10.0 mi SW 15.0 mph - N/A   Partly Cloudy
6:53 AM 59.0 °F 30.9 °F 35% 29.94 in 10.0 mi SW 11.5 mph - N/A   Partly Cloudy
7:53 AM 61.0 °F 32.0 °F 34% 29.97 in 10.0 mi WSW 9.2 mph - N/A   Partly Cloudy
8:53 AM 66.9 °F 33.1 °F 28% 29.96 in 10.0 mi WSW 6.9 mph - N/A   Partly Cloudy
9:53 AM 75.0 °F 27.0 °F 17% 29.95 in 10.0 mi NNW 8.1 mph - N/A   Partly Cloudy
10:53 AM 78.1 °F 27.0 °F 15% 29.94 in 10.0 mi NNW 10.4 mph - N/A   Scattered Clouds
11:53 AM 80.6 °F 26.6 °F 14% 30.15 in 10.0 mi NNW 6.9 mph - N/A   Mostly Cloudy
12:53 PM 82.9 °F 28.0 °F 14% 29.89 in 10.0 mi North 5.8 mph - N/A   Mostly Cloudy
1:53 PM 84.9 °F 27.0 °F 12% 29.85 in 10.0 mi North 16.1 mph 20.7 mph N/A   Mostly Cloudy
2:53 PM 84.9 °F 28.0 °F 13% 29.84 in 10.0 mi NNW 17.3 mph 25.3 mph N/A   Mostly Cloudy
3:53 PM 84.9 °F 27.0 °F 12% 29.83 in 10.0 mi North 10.4 mph 19.6 mph N/A   Mostly Cloudy
4:53 PM 82.9 °F 28.0 °F 14% 29.83 in 10.0 mi North 9.2 mph - N/A   Mostly Cloudy
5:53 PM 79.0 °F 30.0 °F 17% 29.83 in 10.0 mi NNE 8.1 mph - N/A   Mostly Cloudy
6:53 PM 73.0 °F 32.0 °F 22% 29.85 in 10.0 mi North 6.9 mph - N/A   Mostly Cloudy
7:53 PM 72.0 °F 32.0 °F 23% 29.86 in 10.0 mi NNE 5.8 mph - N/A   Mostly Cloudy
8:53 PM 66.0 °F 34.0 °F 30% 29.88 in 10.0 mi East 5.8 mph - N/A   Mostly Cloudy
9:53 PM 60.8 °F 35.6 °F 39% 30.08 in 10.0 mi SSE 6.9 mph - N/A   Scattered Clouds
10:53 PM 60.1 °F 37.0 °F 42% 29.87 in 10.0 mi South 10.4 mph - N/A   Scattered Clouds
11:53 PM 59.0 °F 37.0 °F 44% 29.87 in 7.0 mi WSW 6.9 mph - N/A   Scattered Clouds